Weather History for Marion, IN

Change the Weather History Date:

Saturday, February 9, 2013

  Actual Average (KMIE) Record (KMIE)
Temperature  
Mean Temperature 28 °F 28 °F  
Max Temperature 62 °F 36 °F 61 °F (2001)
Min Temperature 21 °F 20 °F -4 °F (1979)
Degree Days  
Heating Degree Days 36 37  
Month to date heating degree days 338  
Since 1 July heating degree days 3731  
Cooling Degree Days 0 0  
Month to date cooling degree days 0  
Year to date cooling degree days 0  
Moisture  
Dew Point 22 °F    
Average Humidity 75    
Maximum Humidity 93    
Minimum Humidity 60    
Precipitation  
Precipitation 0.00 in 0.09 in 0.94 in (2001)
Month to date precipitation 0.73  
Year to date precipitation 2.96  
Sea Level Pressure  
Sea Level Pressure 30.33 in    
Wind  
Wind Speed 4 mph (SE)    
Max Wind Speed 12 mph    
Max Gust Speed -    
Visibility 9 miles    
Events Snow    
T = Trace of Precipitation, MM = Missing Value Source: NWS Daily Summary

Daily Weather History Graph

Daily Weather History Graph

Search for Another Location

Airport:

Trip Planner

Search our weather history database for the weather conditions in past years. The results will help you decide how hot, cold, wet, or windy it might be!

Date:

Astronomy

Feb. 09, 2013 Rise Set
Actual Time 7:43 AM EST 6:11 PM EST
Civil Twilight 7:15 AM EST 6:39 PM EST
Nautical Twilight 6:42 AM EST 7:11 PM EST
Astronomical Twilight 6:11 AM EST 7:43 PM EST
Moon 6:54 AM EST (2/9) 5:53 PM EST (2/9)
Length of Visible Light 11h 24m
Length of Day
10h 27m
Waning Crescent, 0% of the Moon is Illuminated
Feb 9
Waning Crescent
Feb 10
New
Feb 17
First Quarter
Feb 25
Full
Mar 4
Last Quarter

Hourly Weather History & Observations

Time (EST) Temp. Windchill Dew Point Humidity Pressure Visibility Wind Dir Wind Speed Gust Speed Precip Events Conditions
12:15 AM 28.4 °F 24.6 °F 19.8 °F 70% 30.36 in 10.0 mi NNW 3.5 mph - N/A   Clear
12:35 AM 28.4 °F 24.6 °F 19.9 °F 71% 30.35 in 10.0 mi North 3.5 mph - N/A   Clear
12:55 AM 27.9 °F - 20.8 °F 75% 30.35 in 10.0 mi Calm Calm - N/A   Clear
1:15 AM 26.6 °F 22.6 °F 21.0 °F 79% 30.34 in 10.0 mi NE 3.5 mph - N/A   Clear
1:35 AM 26.1 °F - 20.5 °F 79% 30.35 in 10.0 mi Calm Calm - N/A   Clear
1:55 AM 26.6 °F - 20.8 °F 79% 30.36 in 10.0 mi Calm Calm - N/A   Clear
2:15 AM 27.0 °F - 20.1 °F 75% 30.36 in 10.0 mi Calm Calm - N/A   Clear
2:35 AM 26.6 °F - 21.7 °F 82% 30.37 in 10.0 mi Calm Calm - N/A   Clear
2:55 AM 26.2 °F - 22.1 °F 84% 30.37 in 10.0 mi Calm Calm - N/A   Clear
3:15 AM 24.8 °F - 21.0 °F 86% 30.36 in 10.0 mi Calm Calm - N/A   Clear
3:55 AM 24.4 °F - 21.6 °F 89% 30.36 in 10.0 mi Calm Calm - N/A   Clear
4:15 AM 24.3 °F - 21.0 °F 87% 30.36 in 10.0 mi Calm Calm - N/A   Clear
4:35 AM 23.4 °F - 20.7 °F 89% 30.36 in 10.0 mi Calm Calm - N/A   Clear
4:55 AM 23.5 °F - 20.5 °F 88% 30.36 in 10.0 mi Calm Calm - N/A   Clear
5:15 AM 23.7 °F - 20.8 °F 89% 30.37 in 7.0 mi Calm Calm - N/A   Clear
5:35 AM 23.7 °F - 21.4 °F 91% 30.37 in 7.0 mi Calm Calm - N/A   Clear
5:55 AM 22.8 °F - 20.8 °F 92% 30.37 in 7.0 mi Calm Calm - N/A   Clear
6:15 AM 22.3 °F - 20.7 °F 93% 30.37 in 5.0 mi Calm Calm - N/A   Clear
6:35 AM 22.8 °F - 21.2 °F 93% 30.39 in 7.0 mi Calm Calm - N/A   Clear
6:55 AM 22.8 °F - 20.7 °F 91% 30.38 in 7.0 mi Calm Calm - N/A   Clear
7:15 AM 21.9 °F 15.7 °F 19.9 °F 92% 30.38 in 7.0 mi ESE 4.6 mph - N/A   Clear
7:35 AM 22.1 °F 17.4 °F 20.1 °F 92% 30.39 in 7.0 mi ESE 3.5 mph - N/A   Clear
7:55 AM 22.6 °F 18.0 °F 20.1 °F 90% 30.39 in 7.0 mi ESE 3.5 mph - N/A   Clear
8:15 AM 23.0 °F - 20.3 °F 89% 30.41 in 5.0 mi Calm Calm - N/A   Clear
8:35 AM 23.7 °F 17.8 °F 20.8 °F 89% 30.41 in 7.0 mi ESE 4.6 mph - N/A   Clear
8:55 AM 24.4 °F 16.5 °F 21.0 °F 87% 30.41 in 7.0 mi ESE 6.9 mph - N/A   Clear
9:15 AM 25.2 °F 17.3 °F 21.4 °F 86% 30.41 in 7.0 mi SE 6.9 mph - N/A   Clear
9:35 AM 26.2 °F 17.8 °F 21.2 °F 81% 30.41 in 7.0 mi SE 8.1 mph - N/A   Clear
9:55 AM 27.0 °F 18.7 °F 21.0 °F 78% 30.41 in 10.0 mi SE 8.1 mph - N/A   Clear
10:15 AM 27.9 °F 18.4 °F 21.4 °F 77% 30.39 in 10.0 mi SSE 10.4 mph - N/A   Clear
10:35 AM 28.4 °F 19.7 °F 21.2 °F 74% 30.40 in 10.0 mi SE 9.2 mph - N/A   Clear
10:55 AM 29.1 °F 21.3 °F 20.7 °F 71% 30.39 in 10.0 mi SE 8.1 mph - N/A   Clear
11:15 AM 29.8 °F 21.5 °F 20.8 °F 69% 30.39 in 7.0 mi SSE 9.2 mph - N/A   Clear
11:35 AM 30.4 °F 22.2 °F 21.0 °F 68% 30.39 in 7.0 mi SSE 9.2 mph - N/A   Clear
11:55 AM 30.7 °F 23.3 °F 21.6 °F 69% 30.39 in 7.0 mi SSE 8.1 mph - N/A   Clear
12:15 PM 31.6 °F 23.7 °F 21.9 °F 67% 30.40 in 7.0 mi SSE 9.2 mph - N/A   Clear
12:35 PM 31.8 °F 24.6 °F 21.7 °F 66% 30.39 in 10.0 mi SE 8.1 mph - N/A   Clear
12:55 PM 32.0 °F 27.5 °F 21.9 °F 66% 30.37 in 7.0 mi SE 4.6 mph - N/A   Clear
1:15 PM 32.5 °F 27.1 °F 22.8 °F 67% 30.36 in 7.0 mi ESE 5.8 mph - N/A   Clear
1:35 PM 32.7 °F 27.3 °F 22.3 °F 65% 30.36 in 7.0 mi SSE 5.8 mph - N/A   Clear
1:55 PM 33.6 °F 26.2 °F 23.0 °F 65% 30.35 in 10.0 mi SSE 9.2 mph - N/A   Clear
2:15 PM 34.2 °F 27.5 °F 22.8 °F 63% 30.33 in 7.0 mi SE 8.1 mph - N/A   Clear
2:35 PM 34.7 °F 27.5 °F 23.5 °F 64% 30.32 in 10.0 mi SE 9.2 mph - N/A   Clear
2:55 PM 35.1 °F 27.4 °F 23.5 °F 63% 30.31 in 10.0 mi SSE 10.4 mph - N/A   Clear
3:15 PM 35.6 °F 27.5 °F 24.1 °F 63% 30.30 in 10.0 mi SE 11.5 mph - N/A   Clear
3:35 PM 35.8 °F 27.8 °F 24.3 °F 63% 30.30 in 7.0 mi SE 11.5 mph - N/A   Clear
3:55 PM 36.0 °F 28.5 °F 23.9 °F 62% 30.29 in 7.0 mi SSE 10.4 mph - N/A   Clear
4:15 PM 36.1 °F 28.7 °F 23.5 °F 60% 30.29 in 10.0 mi SE 10.4 mph - N/A   Clear
4:35 PM 36.3 °F 29.5 °F 23.9 °F 61% 30.28 in 10.0 mi SE 9.2 mph - N/A   Clear
4:55 PM 36.1 °F 30.6 °F 23.5 °F 60% 30.28 in 10.0 mi SSE 6.9 mph - N/A   Clear
5:15 PM 35.4 °F 29.7 °F 23.4 °F 62% 30.27 in 7.0 mi SSE 6.9 mph - N/A   Clear
5:35 PM 34.9 °F 29.9 °F 23.4 °F 63% 30.27 in 7.0 mi SSE 5.8 mph - N/A   Clear
5:55 PM 34.2 °F 31.2 °F 23.7 °F 66% 30.28 in 10.0 mi SSE 3.5 mph - N/A   Clear
6:15 PM 33.1 °F 28.7 °F 23.7 °F 68% 30.27 in 10.0 mi SE 4.6 mph - N/A   Clear
6:35 PM 32.0 °F 26.4 °F 24.1 °F 73% 30.26 in 10.0 mi ESE 5.8 mph - N/A   Clear
6:55 PM 31.3 °F 25.6 °F 23.9 °F 74% 30.26 in 10.0 mi ESE 5.8 mph - N/A   Clear
7:15 PM 31.3 °F 24.7 °F 23.7 °F 74% 30.25 in 10.0 mi SE 6.9 mph - N/A   Clear
7:35 PM 31.5 °F 24.2 °F 23.7 °F 73% 30.25 in 10.0 mi ESE 8.1 mph - N/A   Clear
7:55 PM 31.3 °F 24.7 °F 23.7 °F 74% 30.25 in 10.0 mi SE 6.9 mph - N/A   Clear
8:35 PM 30.9 °F 24.3 °F 23.5 °F 74% 30.24 in 10.0 mi ESE 6.9 mph - N/A   Clear
8:55 PM 30.6 °F 23.8 °F 23.2 °F 74% 30.24 in 7.0 mi SE 6.9 mph - N/A Snow Light Snow
9:15 PM 30.6 °F 23.8 °F 23.7 °F 76% 30.24 in 10.0 mi SE 6.9 mph - N/A   Clear
9:35 PM 30.2 °F 23.4 °F 23.4 °F 76% 30.24 in 10.0 mi SE 6.9 mph - N/A   Clear
9:55 PM 30.7 °F 24.1 °F 23.4 °F 74% 30.24 in 10.0 mi SE 6.9 mph - N/A   Clear
10:15 PM 31.6 °F 24.4 °F 23.0 °F 70% 30.23 in 10.0 mi SE 8.1 mph - N/A   Clear
10:35 PM 31.6 °F 25.1 °F 23.0 °F 70% 30.23 in 10.0 mi SE 6.9 mph - N/A   Clear
10:55 PM 31.6 °F 24.4 °F 23.0 °F 70% 30.22 in 10.0 mi SE 8.1 mph - N/A   Clear
11:15 PM 31.6 °F 23.7 °F 23.0 °F 70% 30.21 in 4.0 mi SE 9.2 mph - N/A Snow Light Snow
11:35 PM 31.5 °F 22.9 °F 22.6 °F 70% 30.19 in 5.0 mi SE 10.4 mph - N/A Snow Light Snow
11:55 PM 31.3 °F 23.3 °F 22.1 °F 69% 30.18 in 10.0 mi SE 9.2 mph - N/A   Clear